| time (UTC) | temp F | wind direction | speed MPH | gust MPH | rain 1hr in | rain 24hr in | rain mn in | humidity % | barometer mb |
| 20260906093503 | 84 | 32 | 5.0 | 11.0 | 0.00 | 0.00 | 0.00 | 54 | 1022.1 |
| 20260906093003 | 84 | 22 | 5.0 | 11.0 | 0.00 | 0.00 | 0.00 | 54 | 1021.7 |
| 20260906092503 | 83 | 52 | 5.0 | 10.0 | 0.00 | 0.00 | 0.00 | 55 | 1021.8 |
| 20260906092003 | 83 | 79 | 4.0 | 9.0 | 0.00 | 0.00 | 0.00 | 55 | 1021.9 |
| 20260906091503 | 83 | 58 | 3.0 | 8.0 | 0.00 | 0.00 | 0.00 | 56 | 1022.0 |
| 20260906091003 | 83 | 46 | 4.0 | 8.0 | 0.00 | 0.00 | 0.00 | 55 | 1021.7 |
| 20260906090503 | 83 | 30 | 4.0 | 10.0 | 0.00 | 0.00 | 0.00 | 55 | 1022.1 |
| 20260906090003 | 83 | 24 | 4.0 | 10.0 | 0.00 | 0.00 | 0.00 | 55 | 1021.8 |
| 20260906085503 | 82 | 28 | 4.0 | 9.0 | 0.00 | 0.00 | 0.00 | 55 | 1022.0 |
| 20260906085003 | 82 | 44 | 4.0 | 9.0 | 0.00 | 0.00 | 0.00 | 56 | 1022.1 |
| 20260906084503 | 82 | 48 | 4.0 | 9.0 | 0.00 | 0.00 | 0.00 | 55 | 1022.1 |
| 20260906084003 | 82 | 41 | 4.0 | 9.0 | 0.00 | 0.00 | 0.00 | 55 | 1021.9 |
| 20260906083503 | 82 | 43 | 4.0 | 9.0 | 0.00 | 0.00 | 0.00 | 55 | 1022.0 |
| 20260906083003 | 82 | 41 | 4.0 | 9.0 | 0.00 | 0.00 | 0.00 | 53 | 1022.0 |
| 20260906082503 | 81 | 35 | 4.0 | 9.0 | 0.00 | 0.00 | 0.00 | 53 | 1021.9 |
| 20260906082003 | 81 | 48 | 4.0 | 9.0 | 0.00 | 0.00 | 0.00 | 53 | 1021.9 |
| 20260906081503 | 81 | 55 | 4.0 | 11.0 | 0.00 | 0.00 | 0.00 | 53 | 1021.8 |
| 20260906081003 | 81 | 45 | 3.0 | 11.0 | 0.00 | 0.00 | 0.00 | 53 | 1021.9 |
| 20260906080503 | 80 | 44 | 3.0 | 11.0 | 0.00 | 0.00 | 0.00 | 54 | 1021.8 |
| 20260906080003 | 80 | 43 | 4.0 | 11.0 | 0.00 | 0.00 | 0.00 | 55 | 1021.8 |
| 20260906075503 | 80 | 34 | 4.0 | 8.0 | 0.00 | 0.00 | 0.00 | 55 | 1021.6 |
| 20260906075003 | 79 | 25 | 4.0 | 11.0 | 0.00 | 0.00 | 0.00 | 56 | 1021.6 |
| 20260906074503 | 79 | 31 | 5.0 | 13.0 | 0.00 | 0.00 | 0.00 | 56 | 1021.8 |
| 20260906074003 | 79 | 33 | 5.0 | 13.0 | 0.00 | 0.00 | 0.00 | 55 | 1021.5 |
| 20260906073504 | 79 | 26 | 5.0 | 11.0 | 0.00 | 0.00 | 0.00 | 56 | 1021.5 |
| 20260906073003 | 78 | 27 | 5.0 | 10.0 | 0.00 | 0.00 | 0.00 | 57 | 1021.5 |
| 20260906072503 | 78 | 25 | 5.0 | 11.0 | 0.00 | 0.00 | 0.00 | 58 | 1021.6 |
| 20260906072003 | 78 | 24 | 4.0 | 11.0 | 0.00 | 0.00 | 0.00 | 59 | 1021.6 |
| 20260906071503 | 77 | 20 | 4.0 | 9.0 | 0.00 | 0.00 | 0.00 | 61 | 1021.5 |
| 20260906071003 | 77 | 17 | 4.0 | 9.0 | 0.00 | 0.00 | 0.00 | 62 | 1021.5 |
| 20260906070503 | 76 | 13 | 5.0 | 11.0 | 0.00 | 0.00 | 0.00 | 62 | 1021.6 |
| 20260906070003 | 76 | 10 | 5.0 | 11.0 | 0.00 | 0.00 | 0.00 | 62 | 1021.6 |
| 20260906065503 | 76 | 8 | 5.0 | 10.0 | 0.00 | 0.00 | 0.00 | 62 | 1021.7 |
| 20260906065003 | 75 | 9 | 4.0 | 10.0 | 0.00 | 0.00 | 0.00 | 64 | 1021.2 |
| 20260906064503 | 75 | 14 | 5.0 | 11.0 | 0.00 | 0.00 | 0.00 | 63 | 1021.2 |
| 20260906064003 | 75 | 13 | 6.0 | 11.0 | 0.00 | 0.00 | 0.00 | 65 | 1021.1 |
| 20260906063503 | 74 | 12 | 5.0 | 9.0 | 0.00 | 0.00 | 0.00 | 65 | 1021.0 |
| 20260906063003 | 74 | 17 | 4.0 | 9.0 | 0.00 | 0.00 | 0.00 | 67 | 1021.2 |
| 20260906062503 | 74 | 18 | 4.0 | 8.0 | 0.00 | 0.00 | 0.00 | 68 | 1021.1 |
| 20260906062003 | 73 | 18 | 4.0 | 8.0 | 0.00 | 0.00 | 0.00 | 69 | 1020.9 |
| 20260906061503 | 73 | 15 | 4.0 | 6.0 | 0.00 | 0.00 | 0.00 | 69 | 1020.9 |
| 20260906061003 | 73 | 12 | 3.0 | 7.0 | 0.00 | 0.00 | 0.00 | 70 | 1020.9 |
| 20260906060503 | 73 | 10 | 3.0 | 7.0 | 0.00 | 0.00 | 0.00 | 70 | 1020.7 |
| 20260906060003 | 72 | 15 | 3.0 | 6.0 | 0.00 | 0.00 | 0.00 | 71 | 1020.8 |
| 20260906055503 | 72 | 17 | 3.0 | 6.0 | 0.00 | 0.00 | 0.00 | 71 | 1020.6 |
| 20260906055004 | 72 | 5 | 2.0 | 4.0 | 0.00 | 0.00 | 0.00 | 72 | 1021.0 |
| 20260906054503 | 71 | 359 | 3.0 | 5.0 | 0.00 | 0.00 | 0.00 | 72 | 1021.0 |
| 20260906054003 | 71 | 357 | 3.0 | 5.0 | 0.00 | 0.00 | 0.00 | 72 | 1020.8 |
| 20260906053503 | 71 | 360 | 2.0 | 5.0 | 0.00 | 0.00 | 0.00 | 73 | 1020.7 |
| 20260906053003 | 71 | 4 | 2.0 | 4.0 | 0.00 | 0.00 | 0.00 | 73 | 1020.5 |
| 20260906052503 | 71 | 358 | 2.0 | 5.0 | 0.00 | 0.00 | 0.00 | 73 | 1020.5 |
| 20260906052003 | 70 | 353 | 2.0 | 5.0 | 0.00 | 0.00 | 0.00 | 73 | 1020.5 |
| 20260906051503 | 70 | 357 | 1.0 | 3.0 | 0.00 | 0.00 | 0.00 | 73 | 1020.2 |
| 20260906051003 | 70 | 2 | 1.0 | 4.0 | 0.00 | 0.00 | 0.00 | 73 | 1020.2 |
| 20260906050503 | 70 | 357 | 2.0 | 4.0 | 0.00 | 0.00 | 0.00 | 73 | 1020.3 |
| 20260906050003 | 70 | 356 | 2.0 | 4.0 | 0.00 | 0.00 | 0.00 | 73 | 1020.0 |
| 20260906045503 | 70 | 357 | 2.0 | 5.0 | 0.00 | 0.00 | 0.00 | 73 | 1020.3 |
| 20260906045003 | 70 | 353 | 3.0 | 5.0 | 0.00 | 0.00 | 0.00 | 73 | 1020.0 |
| 20260906044503 | 70 | 354 | 2.0 | 5.0 | 0.00 | 0.00 | 0.00 | 73 | 1020.1 |
| 20260906044003 | 70 | 354 | 2.0 | 5.0 | 0.00 | 0.00 | 0.00 | 73 | 1020.0 |
| 20260906043503 | 70 | 342 | 2.0 | 4.0 | 0.00 | 0.00 | 0.00 | 73 | 1020.0 |
| 20260906043003 | 71 | 343 | 2.0 | 4.0 | 0.00 | 0.00 | 0.00 | 73 | 1020.1 |
| 20260906042503 | 71 | 350 | 2.0 | 4.0 | 0.00 | 0.00 | 0.00 | 73 | 1019.9 |
| 20260906042003 | 71 | 354 | 2.0 | 4.0 | 0.00 | 0.00 | 0.00 | 73 | 1019.9 |
| 20260906041503 | 71 | 359 | 2.0 | 4.0 | 0.00 | 0.00 | 0.00 | 73 | 1019.7 |
| 20260906041003 | 71 | 3 | 2.0 | 4.0 | 0.00 | 0.00 | 0.00 | 73 | 1019.9 |
| 20260906040503 | 71 | 359 | 2.0 | 5.0 | 0.00 | 0.00 | 0.00 | 73 | 1019.8 |
| 20260906040003 | 71 | 355 | 2.0 | 5.0 | 0.00 | 0.00 | 0.00 | 74 | 1019.7 |
| 20260906035503 | 71 | 5 | 2.0 | 4.0 | 0.00 | 0.00 | 0.00 | 74 | 1019.6 |
| 20260906035003 | 71 | 8 | 2.0 | 4.0 | 0.00 | 0.00 | 0.00 | 74 | 1019.3 |
| 20260906034503 | 71 | 1 | 3.0 | 5.0 | 0.00 | 0.00 | 0.00 | 74 | 1019.4 |
| 20260906034003 | 71 | 10 | 2.0 | 6.0 | 0.00 | 0.00 | 0.00 | 75 | 1019.5 |
| 20260906033503 | 71 | 13 | 2.0 | 6.0 | 0.00 | 0.00 | 0.00 | 75 | 1019.3 |
| 20260906033003 | 71 | 360 | 2.0 | 5.0 | 0.00 | 0.00 | 0.00 | 75 | 1019.4 |
| 20260906032503 | 71 | 356 | 2.0 | 5.0 | 0.00 | 0.00 | 0.00 | 75 | 1019.2 |
| 20260906032003 | 72 | 350 | 2.0 | 4.0 | 0.00 | 0.00 | 0.00 | 75 | 1019.2 |
| 20260906031503 | 72 | 348 | 3.0 | 5.0 | 0.00 | 0.00 | 0.00 | 75 | 1019.2 |
| 20260906031003 | 72 | 352 | 3.0 | 5.0 | 0.00 | 0.00 | 0.00 | 76 | 1019.3 |
| 20260906030503 | 72 | 350 | 3.0 | 6.0 | 0.00 | 0.00 | 0.00 | 76 | 1019.4 |
| 20260906030003 | 72 | 349 | 4.0 | 6.0 | 0.00 | 0.00 | 0.00 | 77 | 1019.2 |
| 20260906025503 | 72 | 352 | 4.0 | 6.0 | 0.00 | 0.00 | 0.00 | 77 | 1019.3 |
| 20260906025003 | 72 | 353 | 3.0 | 6.0 | 0.00 | 0.00 | 0.00 | 77 | 1019.2 |
| 20260906024503 | 72 | 349 | 2.0 | 5.0 | 0.00 | 0.00 | 0.00 | 78 | 1019.4 |
| 20260906024003 | 72 | 346 | 2.0 | 5.0 | 0.00 | 0.00 | 0.00 | 78 | 1019.3 |
| 20260906023503 | 72 | 341 | 2.0 | 4.0 | 0.00 | 0.00 | 0.00 | 78 | 1019.6 |
| 20260906023003 | 72 | 345 | 2.0 | 5.0 | 0.00 | 0.00 | 0.00 | 78 | 1019.3 |
| 20260906022503 | 72 | 350 | 3.0 | 5.0 | 0.00 | 0.00 | 0.00 | 78 | 1019.3 |
| 20260906022003 | 73 | 353 | 3.0 | 5.0 | 0.00 | 0.00 | 0.00 | 78 | 1019.2 |
| 20260906021503 | 73 | 355 | 2.0 | 5.0 | 0.00 | 0.00 | 0.00 | 78 | 1019.0 |
| 20260906021003 | 73 | 351 | 2.0 | 4.0 | 0.00 | 0.00 | 0.00 | 79 | 1019.1 |
| 20260906020503 | 73 | 357 | 2.0 | 4.0 | 0.00 | 0.00 | 0.00 | 79 | 1019.1 |
| 20260906020004 | 73 | 4 | 2.0 | 4.0 | 0.00 | 0.00 | 0.00 | 79 | 1019.3 |
| 20260906015503 | 73 | 4 | 2.0 | 4.0 | 0.00 | 0.00 | 0.00 | 80 | 1019.3 |
| 20260906015003 | 73 | 7 | 2.0 | 4.0 | 0.00 | 0.00 | 0.00 | 80 | 1019.0 |
| 20260906014503 | 73 | 5 | 2.0 | 4.0 | 0.00 | 0.00 | 0.00 | 80 | 1019.0 |
| 20260906014003 | 74 | 3 | 3.0 | 5.0 | 0.00 | 0.00 | 0.00 | 80 | 1019.3 |
| 20260906013503 | 74 | 8 | 2.0 | 5.0 | 0.00 | 0.00 | 0.00 | 81 | 1019.1 |
| 20260906013003 | 74 | 7 | 2.0 | 4.0 | 0.00 | 0.00 | 0.00 | 81 | 1019.2 |
| 20260906012503 | 74 | 5 | 2.0 | 4.0 | 0.00 | 0.00 | 0.00 | 81 | 1019.0 |
| 20260906012003 | 74 | 6 | 2.0 | 4.0 | 0.00 | 0.00 | 0.00 | 81 | 1018.9 |
| 20260906011503 | 74 | 5 | 2.0 | 5.0 | 0.00 | 0.00 | 0.00 | 82 | 1019.0 |
| 20260906011003 | 74 | 8 | 2.0 | 5.0 | 0.00 | 0.00 | 0.00 | 82 | 1019.0 |
| 20260906010503 | 74 | 13 | 3.0 | 7.0 | 0.00 | 0.00 | 0.00 | 82 | 1019.0 |
| 20260906010003 | 74 | 14 | 3.0 | 7.0 | 0.00 | 0.00 | 0.00 | 82 | 1018.8 |
| 20260906005503 | 74 | 15 | 4.0 | 6.0 | 0.00 | 0.00 | 0.00 | 82 | 1019.0 |
| 20260906005003 | 75 | 18 | 4.0 | 7.0 | 0.00 | 0.00 | 0.00 | 82 | 1018.8 |
| 20260906004503 | 75 | 18 | 4.0 | 7.0 | 0.00 | 0.00 | 0.00 | 82 | 1018.9 |
| 20260906004003 | 75 | 19 | 4.0 | 6.0 | 0.00 | 0.00 | 0.00 | 82 | 1018.9 |
| 20260906003503 | 75 | 19 | 3.0 | 6.0 | 0.00 | 0.00 | 0.00 | 82 | 1018.9 |
| 20260906003003 | 75 | 18 | 3.0 | 5.0 | 0.00 | 0.00 | 0.00 | 82 | 1018.8 |
| 20260906002503 | 75 | 18 | 3.0 | 5.0 | 0.00 | 0.00 | 0.00 | 82 | 1019.1 |
| 20260906002003 | 75 | 12 | 3.0 | 5.0 | 0.00 | 0.00 | 0.00 | 82 | 1019.0 |
| 20260906001503 | 75 | 12 | 3.0 | 5.0 | 0.00 | 0.00 | 0.00 | 82 | 1019.1 |
| 20260906001003 | 75 | 20 | 3.0 | 6.0 | 0.00 | 0.00 | 0.00 | 82 | 1019.2 |
| 20260906000503 | 75 | 18 | 3.0 | 6.0 | 0.00 | 0.00 | 0.00 | 82 | 1019.1 |
| 20260906000003 | 75 | 4 | 3.0 | 6.0 | 0.00 | 0.00 | 0.00 | 82 | 1019.3 |
| 20260905235503 | 75 | 358 | 3.0 | 4.0 | 0.00 | 0.00 | 0.00 | 82 | 1019.0 |
| 20260905235003 | 75 | 4 | 2.0 | 4.0 | 0.00 | 0.00 | 0.00 | 82 | 1019.1 |
| 20260905234503 | 75 | 4 | 2.0 | 3.0 | 0.00 | 0.00 | 0.00 | 82 | 1019.0 |
| 20260905234003 | 75 | 11 | 2.0 | 4.0 | 0.00 | 0.00 | 0.00 | 82 | 1018.9 |
| 20260905233503 | 75 | 9 | 2.0 | 4.0 | 0.00 | 0.00 | 0.00 | 82 | 1018.9 |
| 20260905233003 | 75 | 2 | 3.0 | 4.0 | 0.00 | 0.00 | 0.00 | 81 | 1018.8 |
| 20260905232503 | 75 | 5 | 3.0 | 4.0 | 0.00 | 0.00 | 0.00 | 81 | 1018.6 |
| 20260905232003 | 75 | 14 | 3.0 | 4.0 | 0.00 | 0.00 | 0.00 | 81 | 1018.7 |
| 20260905231503 | 75 | 16 | 2.0 | 4.0 | 0.00 | 0.00 | 0.00 | 80 | 1018.6 |
| 20260905231003 | 75 | 16 | 2.0 | 3.0 | 0.00 | 0.00 | 0.00 | 80 | 1018.8 |
| 20260905230503 | 75 | 13 | 1.0 | 3.0 | 0.00 | 0.00 | 0.00 | 80 | 1019.1 |
| 20260905230003 | 75 | 11 | 2.0 | 3.0 | 0.00 | 0.00 | 0.00 | 80 | 1018.7 |
| 20260905225503 | 75 | 13 | 1.0 | 3.0 | 0.00 | 0.00 | 0.00 | 80 | 1018.9 |
| 20260905225003 | 75 | 18 | 1.0 | 3.0 | 0.00 | 0.00 | 0.00 | 79 | 1018.6 |
| 20260905224503 | 75 | 28 | 1.0 | 2.0 | 0.00 | 0.00 | 0.00 | 79 | 1018.4 |
| 20260905224003 | 75 | 36 | 1.0 | 2.0 | 0.00 | 0.00 | 0.00 | 79 | 1018.5 |
| 20260905223503 | 75 | 27 | 1.0 | 2.0 | 0.00 | 0.00 | 0.00 | 78 | 1018.5 |
| 20260905223003 | 75 | 23 | 1.0 | 2.0 | 0.00 | 0.00 | 0.00 | 78 | 1018.5 |
| 20260905222503 | 75 | 25 | 0.0 | 2.0 | 0.00 | 0.00 | 0.00 | 78 | 1018.5 |
| 20260905222003 | 75 | 25 | 0.0 | 2.0 | 0.00 | 0.00 | 0.00 | 78 | 1018.2 |
| 20260905221503 | 75 | 31 | 0.0 | 2.0 | 0.00 | 0.00 | 0.00 | 78 | 1018.4 |
| 20260905221003 | 75 | 36 | 0.0 | 2.0 | 0.00 | 0.00 | 0.00 | 78 | 1018.5 |
| 20260905220503 | 75 | 41 | 0.0 | 1.0 | 0.00 | 0.00 | 0.00 | 78 | 1018.5 |
| 20260905220003 | 75 | 27 | 0.0 | 2.0 | 0.00 | 0.00 | 0.00 | 77 | 1018.3 |
| 20260905215503 | 76 | 17 | 0.0 | 2.0 | 0.00 | 0.00 | 0.00 | 77 | 1018.3 |
| 20260905215004 | 76 | 356 | 0.0 | 2.0 | 0.00 | 0.00 | 0.00 | 77 | 1018.1 |
| 20260905214503 | 75 | 321 | 0.0 | 2.0 | 0.00 | 0.00 | 0.00 | 77 | 1018.4 |
| 20260905214003 | 76 | 308 | 1.0 | 3.0 | 0.00 | 0.00 | 0.00 | 78 | 1018.2 |
| 20260905213503 | 76 | 302 | 2.0 | 3.0 | 0.00 | 0.00 | 0.00 | 77 | 1018.2 |
| 20260905213003 | 76 | 302 | 2.0 | 3.0 | 0.00 | 0.00 | 0.00 | 77 | 1018.2 |
| 20260905212503 | 76 | 333 | 1.0 | 3.0 | 0.00 | 0.00 | 0.00 | 77 | 1017.8 |
| 20260905212003 | 76 | 359 | 1.0 | 2.0 | 0.00 | 0.00 | 0.00 | 77 | 1018.0 |
| 20260905211503 | 76 | 359 | 1.0 | 2.0 | 0.00 | 0.00 | 0.00 | 76 | 1017.9 |
| 20260905211003 | 76 | 6 | 1.0 | 2.0 | 0.00 | 0.00 | 0.00 | 76 | 1017.6 |
| 20260905210503 | 76 | 12 | 1.0 | 2.0 | 0.00 | 0.00 | 0.00 | 75 | 1017.7 |
| 20260905210003 | 76 | 13 | 1.0 | 2.0 | 0.00 | 0.00 | 0.00 | 75 | 1017.7 |
| 20260905205503 | 77 | 16 | 0.0 | 2.0 | 0.00 | 0.00 | 0.00 | 75 | 1017.7 |
| 20260905205003 | 77 | 37 | 0.0 | 2.0 | 0.00 | 0.00 | 0.00 | 75 | 1017.7 |
| 20260905204503 | 77 | 32 | 0.0 | 2.0 | 0.00 | 0.00 | 0.00 | 75 | 1017.7 |
| 20260905204003 | 77 | 32 | 1.0 | 2.0 | 0.00 | 0.00 | 0.00 | 75 | 1017.7 |
| 20260905203503 | 77 | 36 | 1.0 | 2.0 | 0.00 | 0.00 | 0.00 | 75 | 1017.5 |
| 20260905203003 | 77 | 36 | 1.0 | 2.0 | 0.00 | 0.00 | 0.00 | 74 | 1017.7 |
| 20260905202504 | 77 | 53 | 1.0 | 2.0 | 0.00 | 0.00 | 0.00 | 74 | 1017.8 |
| 20260905202003 | 77 | 67 | 1.0 | 2.0 | 0.00 | 0.00 | 0.00 | 74 | 1017.7 |
| 20260905201503 | 77 | 42 | 0.0 | 2.0 | 0.00 | 0.00 | 0.00 | 74 | 1017.5 |
| 20260905201003 | 77 | 26 | 0.0 | 2.0 | 0.00 | 0.00 | 0.00 | 74 | 1017.7 |
| 20260905200503 | 77 | 23 | 0.0 | 2.0 | 0.00 | 0.00 | 0.00 | 73 | 1017.5 |
| 20260905200003 | 77 | 9 | 1.0 | 2.0 | 0.00 | 0.00 | 0.00 | 73 | 1017.5 |
| 20260905195503 | 77 | 3 | 1.0 | 2.0 | 0.00 | 0.00 | 0.00 | 73 | 1017.3 |
| 20260905195004 | 78 | 352 | 1.0 | 2.0 | 0.00 | 0.00 | 0.00 | 73 | 1017.5 |
| 20260905194503 | 78 | 305 | 1.0 | 2.0 | 0.00 | 0.00 | 0.00 | 73 | 1017.3 |
| 20260905194003 | 78 | 243 | 0.0 | 2.0 | 0.00 | 0.00 | 0.00 | 73 | 1017.3 |
| 20260905193503 | 78 | 211 | 0.0 | 2.0 | 0.00 | 0.00 | 0.00 | 72 | 1017.2 |
| 20260905193003 | 78 | 185 | 0.0 | 2.0 | 0.00 | 0.00 | 0.00 | 72 | 1017.2 |
| 20260905192503 | 78 | 205 | 0.0 | 2.0 | 0.00 | 0.00 | 0.00 | 71 | 1017.1 |
| 20260905192003 | 79 | 139 | 0.0 | 2.0 | 0.00 | 0.00 | 0.00 | 71 | 1017.2 |
| 20260905191503 | 79 | 113 | 1.0 | 2.0 | 0.00 | 0.00 | 0.00 | 70 | 1017.1 |
| 20260905191003 | 79 | 119 | 1.0 | 3.0 | 0.00 | 0.00 | 0.00 | 70 | 1016.9 |
| 20260905190503 | 79 | 117 | 2.0 | 4.0 | 0.00 | 0.00 | 0.00 | 70 | 1016.9 |
| 20260905190003 | 80 | 115 | 3.0 | 4.0 | 0.00 | 0.00 | 0.00 | 69 | 1016.8 |
| 20260905185503 | 80 | 112 | 3.0 | 4.0 | 0.00 | 0.00 | 0.00 | 69 | 1016.9 |
| 20260905185003 | 80 | 113 | 2.0 | 4.0 | 0.00 | 0.00 | 0.00 | 68 | 1016.8 |
| 20260905184503 | 80 | 117 | 3.0 | 5.0 | 0.00 | 0.00 | 0.00 | 68 | 1016.4 |
| 20260905184003 | 80 | 120 | 2.0 | 5.0 | 0.00 | 0.00 | 0.00 | 68 | 1016.4 |
| 20260905183503 | 80 | 129 | 2.0 | 3.0 | 0.00 | 0.00 | 0.00 | 68 | 1016.5 |
| 20260905183003 | 80 | 133 | 2.0 | 5.0 | 0.00 | 0.00 | 0.00 | 67 | 1016.1 |
| 20260905182503 | 81 | 127 | 3.0 | 5.0 | 0.00 | 0.00 | 0.00 | 67 | 1016.1 |
| 20260905182003 | 81 | 125 | 3.0 | 5.0 | 0.00 | 0.00 | 0.00 | 67 | 1015.9 |
| 20260905181503 | 81 | 129 | 3.0 | 5.0 | 0.00 | 0.00 | 0.00 | 66 | 1015.8 |
| 20260905181003 | 82 | 133 | 3.0 | 5.0 | 0.00 | 0.00 | 0.00 | 66 | 1015.9 |
| 20260905180503 | 82 | 138 | 3.0 | 5.0 | 0.00 | 0.00 | 0.00 | 65 | 1015.9 |
| 20260905180003 | 82 | 146 | 3.0 | 5.0 | 0.00 | 0.00 | 0.00 | 65 | 1015.8 |
| 20260905175503 | 82 | 149 | 3.0 | 5.0 | 0.00 | 0.00 | 0.00 | 65 | 1015.8 |
| 20260905175003 | 83 | 143 | 3.0 | 6.0 | 0.00 | 0.00 | 0.00 | 64 | 1015.6 |
| 20260905174503 | 83 | 137 | 4.0 | 6.0 | 0.00 | 0.00 | 0.00 | 64 | 1015.8 |
| 20260905174003 | 83 | 140 | 3.0 | 6.0 | 0.00 | 0.00 | 0.00 | 63 | 1015.6 |
| 20260905173503 | 83 | 135 | 3.0 | 6.0 | 0.00 | 0.00 | 0.00 | 63 | 1015.2 |
| 20260905173003 | 84 | 129 | 3.0 | 5.0 | 0.00 | 0.00 | 0.00 | 63 | 1015.6 |
| 20260905172503 | 84 | 130 | 3.0 | 7.0 | 0.00 | 0.00 | 0.00 | 63 | 1015.6 |
| 20260905172003 | 85 | 127 | 4.0 | 7.0 | 0.00 | 0.00 | 0.00 | 62 | 1015.5 |
| 20260905171503 | 85 | 121 | 4.0 | 7.0 | 0.00 | 0.00 | 0.00 | 62 | 1015.4 |
| 20260905171003 | 85 | 121 | 4.0 | 7.0 | 0.00 | 0.00 | 0.00 | 61 | 1015.6 |
| 20260905170503 | 85 | 119 | 5.0 | 9.0 | 0.00 | 0.00 | 0.00 | 61 | 1015.1 |
| 20260905170003 | 86 | 119 | 5.0 | 10.0 | 0.00 | 0.00 | 0.00 | 61 | 1015.5 |
| 20260905165503 | 86 | 118 | 4.0 | 10.0 | 0.00 | 0.00 | 0.00 | 60 | 1015.4 |
| 20260905165003 | 87 | 119 | 5.0 | 11.0 | 0.00 | 0.00 | 0.00 | 60 | 1015.6 |
| 20260905164503 | 87 | 130 | 5.0 | 11.0 | 0.00 | 0.00 | 0.00 | 59 | 1015.2 |
| 20260905164003 | 88 | 157 | 4.0 | 11.0 | 0.00 | 0.00 | 0.00 | 50 | 1015.4 |
| 20260905163503 | 89 | 177 | 4.0 | 6.0 | 0.00 | 0.00 | 0.00 | 50 | 1015.1 |
| 20260905163003 | 89 | 182 | 3.0 | 6.0 | 0.00 | 0.00 | 0.00 | 50 | 1014.9 |
| 20260905162503 | 89 | 199 | 3.0 | 7.0 | 0.00 | 0.00 | 0.00 | 49 | 1015.1 |
| 20260905162003 | 89 | 211 | 4.0 | 8.0 | 0.00 | 0.00 | 0.00 | 48 | 1015.1 |
| 20260905161503 | 89 | 217 | 4.0 | 9.0 | 0.00 | 0.00 | 0.00 | 49 | 1014.9 |
| 20260905161003 | 89 | 214 | 3.0 | 9.0 | 0.00 | 0.00 | 0.00 | 49 | 1015.1 |
| 20260905160503 | 90 | 200 | 3.0 | 9.0 | 0.00 | 0.00 | 0.00 | 49 | 1015.0 |
| 20260905160003 | 90 | 215 | 3.0 | 6.0 | 0.00 | 0.00 | 0.00 | 48 | 1015.2 |
| 20260905155503 | 90 | 232 | 4.0 | 6.0 | 0.00 | 0.00 | 0.00 | 49 | 1014.9 |
| 20260905155003 | 90 | 226 | 4.0 | 7.0 | 0.00 | 0.00 | 0.00 | 48 | 1015.0 |
| 20260905154503 | 90 | 215 | 4.0 | 7.0 | 0.00 | 0.00 | 0.00 | 48 | 1014.9 |
| 20260905154003 | 90 | 197 | 3.0 | 6.0 | 0.00 | 0.00 | 0.00 | 47 | 1014.7 |
| 20260905153503 | 90 | 198 | 2.0 | 6.0 | 0.00 | 0.00 | 0.00 | 48 | 1014.6 |
| 20260905153003 | 90 | 199 | 2.0 | 6.0 | 0.00 | 0.00 | 0.00 | 48 | 1014.6 |
| 20260905152504 | 90 | 207 | 3.0 | 8.0 | 0.00 | 0.00 | 0.00 | 48 | 1014.6 |
| 20260905152003 | 91 | 230 | 4.0 | 10.0 | 0.00 | 0.00 | 0.00 | 47 | 1014.8 |
| 20260905151503 | 91 | 252 | 3.0 | 10.0 | 0.00 | 0.00 | 0.00 | 47 | 1014.6 |
| 20260905151003 | 91 | 262 | 2.0 | 7.0 | 0.00 | 0.00 | 0.00 | 47 | 1014.7 |
| 20260905150503 | 91 | 211 | 3.0 | 7.0 | 0.00 | 0.00 | 0.00 | 48 | 1014.7 |
| 20260905150003 | 91 | 187 | 4.0 | 7.0 | 0.00 | 0.00 | 0.00 | 48 | 1014.6 |
| 20260905145503 | 92 | 209 | 3.0 | 6.0 | 0.00 | 0.00 | 0.00 | 48 | 1014.8 |
| 20260905145003 | 92 | 236 | 3.0 | 10.0 | 0.00 | 0.00 | 0.00 | 47 | 1014.9 |
| 20260905144503 | 92 | 227 | 3.0 | 10.0 | 0.00 | 0.00 | 0.00 | 47 | 1014.6 |
| 20260905144003 | 92 | 240 | 2.0 | 8.0 | 0.00 | 0.00 | 0.00 | 48 | 1015.1 |
| 20260905143503 | 92 | 206 | 3.0 | 10.0 | 0.00 | 0.00 | 0.00 | 47 | 1014.8 |
| 20260905143003 | 92 | 199 | 4.0 | 10.0 | 0.00 | 0.00 | 0.00 | 48 | 1014.9 |
| 20260905142503 | 92 | 212 | 4.0 | 8.0 | 0.00 | 0.00 | 0.00 | 47 | 1014.8 |
| 20260905142003 | 92 | 215 | 5.0 | 11.0 | 0.00 | 0.00 | 0.00 | 48 | 1014.9 |
| 20260905141503 | 93 | 205 | 6.0 | 11.0 | 0.00 | 0.00 | 0.00 | 46 | 1015.0 |
| 20260905141003 | 93 | 195 | 5.0 | 11.0 | 0.00 | 0.00 | 0.00 | 45 | 1014.8 |
| 20260905140503 | 93 | 204 | 3.0 | 9.0 | 0.00 | 0.00 | 0.00 | 47 | 1014.7 |
| 20260905140004 | 93 | 249 | 3.0 | 9.0 | 0.00 | 0.00 | 0.00 | 47 | 1015.0 |
| 20260905135503 | 93 | 240 | 5.0 | 10.0 | 0.00 | 0.00 | 0.00 | 47 | 1015.0 |
| 20260905135003 | 93 | 232 | 3.0 | 10.0 | 0.00 | 0.00 | 0.00 | 46 | 1015.0 |
| 20260905134503 | 93 | 217 | 2.0 | 6.0 | 0.00 | 0.00 | 0.00 | 45 | 1015.1 |
| 20260905134003 | 93 | 221 | 3.0 | 6.0 | 0.00 | 0.00 | 0.00 | 46 | 1015.2 |
| 20260905133503 | 93 | 264 | 3.0 | 9.0 | 0.00 | 0.00 | 0.00 | 46 | 1015.1 |
| 20260905133003 | 93 | 263 | 4.0 | 11.0 | 0.00 | 0.00 | 0.00 | 48 | 1015.2 |
| 20260905132503 | 92 | 223 | 5.0 | 11.0 | 0.00 | 0.00 | 0.00 | 49 | 1015.1 |
| 20260905132003 | 92 | 198 | 4.0 | 11.0 | 0.00 | 0.00 | 0.00 | 48 | 1015.1 |
| 20260905131503 | 92 | 207 | 3.0 | 8.0 | 0.00 | 0.00 | 0.00 | 50 | 1015.5 |
| 20260905131003 | 92 | 226 | 4.0 | 10.0 | 0.00 | 0.00 | 0.00 | 50 | 1015.4 |
| 20260905130503 | 92 | 194 | 3.0 | 10.0 | 0.00 | 0.00 | 0.00 | 51 | 1015.2 |
| 20260905130003 | 92 | 198 | 3.0 | 7.0 | 0.00 | 0.00 | 0.00 | 52 | 1015.5 |
| 20260905125503 | 92 | 242 | 3.0 | 7.0 | 0.00 | 0.00 | 0.00 | 52 | 1015.5 |
| 20260905125003 | 91 | 315 | 3.0 | 8.0 | 0.00 | 0.00 | 0.00 | 52 | 1015.7 |
| 20260905124503 | 91 | 354 | 3.0 | 8.0 | 0.00 | 0.00 | 0.00 | 51 | 1015.9 |
| 20260905124003 | 91 | 359 | 2.0 | 5.0 | 0.00 | 0.00 | 0.00 | 52 | 1015.6 |
| 20260905123503 | 91 | 245 | 2.0 | 5.0 | 0.00 | 0.00 | 0.00 | 52 | 1015.7 |
| 20260905123003 | 91 | 246 | 1.0 | 4.0 | 0.00 | 0.00 | 0.00 | 52 | 1015.7 |
| 20260905122503 | 90 | 227 | 2.0 | 8.0 | 0.00 | 0.00 | 0.00 | 54 | 1015.7 |
| 20260905122003 | 90 | 224 | 4.0 | 9.0 | 0.00 | 0.00 | 0.00 | 55 | 1015.9 |
| 20260905121503 | 90 | 238 | 3.0 | 9.0 | 0.00 | 0.00 | 0.00 | 54 | 1016.0 |
| 20260905121003 | 90 | 263 | 2.0 | 8.0 | 0.00 | 0.00 | 0.00 | 55 | 1016.0 |
| 20260905120503 | 89 | 272 | 3.0 | 8.0 | 0.00 | 0.00 | 0.00 | 55 | 1015.9 |
| 20260905120003 | 89 | 293 | 2.0 | 7.0 | 0.00 | 0.00 | 0.00 | 55 | 1016.1 |
| 20260905115503 | 89 | 15 | 2.0 | 6.0 | 0.00 | 0.00 | 0.00 | 55 | 1016.2 |
| 20260905115003 | 89 | 4 | 3.0 | 7.0 | 0.00 | 0.00 | 0.00 | 54 | 1016.3 |
| 20260905114503 | 89 | 1 | 2.0 | 7.0 | 0.00 | 0.00 | 0.00 | 52 | 1016.0 |
| 20260905114003 | 89 | 12 | 2.0 | 5.0 | 0.00 | 0.00 | 0.00 | 53 | 1016.0 |
| 20260905113503 | 88 | 9 | 2.0 | 5.0 | 0.00 | 0.00 | 0.00 | 53 | 1015.9 |
| 20260905113003 | 88 | 303 | 2.0 | 5.0 | 0.00 | 0.00 | 0.00 | 53 | 1016.4 |
| 20260905112503 | 88 | 279 | 3.0 | 7.0 | 0.00 | 0.00 | 0.00 | 54 | 1016.4 |
| 20260905112003 | 88 | 283 | 2.0 | 7.0 | 0.00 | 0.00 | 0.00 | 55 | 1016.1 |
| 20260905111503 | 88 | 202 | 2.0 | 5.0 | 0.00 | 0.00 | 0.00 | 55 | 1016.3 |
| 20260905111003 | 87 | 253 | 2.0 | 7.0 | 0.00 | 0.00 | 0.00 | 57 | 1016.3 |
| 20260905110503 | 87 | 258 | 3.0 | 7.0 | 0.00 | 0.00 | 0.00 | 56 | 1016.4 |
| 20260905110003 | 87 | 208 | 3.0 | 7.0 | 0.00 | 0.00 | 0.00 | 57 | 1016.3 |
| 20260905105503 | 87 | 249 | 2.0 | 7.0 | 0.00 | 0.00 | 0.00 | 57 | 1016.3 |
| 20260905105003 | 87 | 301 | 4.0 | 9.0 | 0.00 | 0.00 | 0.00 | 57 | 1016.2 |
| 20260905104503 | 87 | 310 | 4.0 | 9.0 | 0.00 | 0.00 | 0.00 | 57 | 1016.3 |
| 20260905104003 | 86 | 307 | 2.0 | 7.0 | 0.00 | 0.00 | 0.00 | 58 | 1016.5 |
| 20260905103503 | 85 | 273 | 2.0 | 6.0 | 0.00 | 0.00 | 0.00 | 59 | 1016.3 |
| 20260905103003 | 85 | 322 | 2.0 | 6.0 | 0.00 | 0.00 | 0.00 | 59 | 1016.5 |
| 20260905102503 | 85 | 342 | 3.0 | 6.0 | 0.00 | 0.00 | 0.00 | 59 | 1016.2 |
| 20260905102003 | 85 | 343 | 3.0 | 6.0 | 0.00 | 0.00 | 0.00 | 59 | 1016.2 |
| 20260905101503 | 85 | 342 | 2.0 | 6.0 | 0.00 | 0.00 | 0.00 | 60 | 1016.1 |
| 20260905101003 | 85 | 334 | 1.0 | 5.0 | 0.00 | 0.00 | 0.00 | 60 | 1016.5 |
| 20260905100503 | 85 | 320 | 3.0 | 6.0 | 0.00 | 0.00 | 0.00 | 59 | 1016.4 |
| 20260905100003 | 85 | 307 | 4.0 | 7.0 | 0.00 | 0.00 | 0.00 | 59 | 1016.6 |
| 20260905095503 | 85 | 303 | 3.0 | 7.0 | 0.00 | 0.00 | 0.00 | 59 | 1016.2 |
| 20260905095004 | 85 | 322 | 2.0 | 9.0 | 0.00 | 0.00 | 0.00 | 60 | 1016.3 |
| 20260905094503 | 85 | 352 | 3.0 | 9.0 | 0.00 | 0.00 | 0.00 | 60 | 1016.5 |
| 20260905094003 | 85 | 2 | 2.0 | 7.0 | 0.00 | 0.00 | 0.00 | 60 | 1016.6 |